EW9259 Weather Reports


time (UTC)temp
F
wind
direction
speed
knots
gust
knots
rain 1hr
in
rain 24hr
in
rain mn
in
humidity
%
barometer
mb
20260504003506 74 175 4.3 9.6 0.00 0.00 0.00 45 1016.1
20260504003007 74 176 4.3 9.6 0.00 0.00 0.00 44 1016.0
20260504002505 74 171 4.3 9.6 0.00 0.00 0.00 44 1016.0
20260504002006 75 169 3.5 7.8 0.00 0.00 0.00 44 1016.0
20260504001507 75 171 3.5 8.7 0.00 0.00 0.00 44 1016.1
20260504001006 75 173 4.3 9.6 0.00 0.00 0.00 44 1016.0
20260504000506 75 169 4.3 11.3 0.00 0.00 0.00 43 1016.0
20260504000007 75 165 4.3 11.3 0.00 0.00 0.00 43 1016.1
20260503235506 75 172 3.5 9.6 0.00 0.00 0.00 43 1016.2
20260503235006 75 185 0.9 9.6 0.00 0.00 0.00 43 1016.2
20260503234506 75 179 1.7 11.3 0.00 0.00 0.00 43 1016.3
20260503234006 76 171 3.5 11.3 0.00 0.00 0.00 43 1016.3
20260503233505 76 168 1.7 8.7 0.00 0.00 0.00 43 1016.2
20260503233007 76 0 0.0 6.1 0.00 0.00 0.00 43 1016.3
20260503232506 76 0 0.0 3.5 0.00 0.00 0.00 43 1016.3
20260503232006 76 165 1.7 8.7 0.00 0.00 0.00 44 1016.4
20260503231506 76 166 3.5 10.4 0.00 0.00 0.00 43 1016.4
20260503231005 76 164 4.3 10.4 0.00 0.00 0.00 42 1016.5
20260503230507 76 167 4.3 9.6 0.00 0.00 0.00 42 1016.4
20260503230006 76 169 5.2 10.4 0.00 0.00 0.00 43 1016.3
20260503225006 76 164 5.2 12.2 0.00 0.00 0.00 43 1016.3
20260503224506 76 166 5.2 12.2 0.00 0.00 0.00 43 1016.4
20260503224006 76 167 5.2 10.4 0.00 0.00 0.00 43 1016.5
20260503223506 76 171 4.3 9.6 0.00 0.00 0.00 42 1016.6
20260503223006 76 178 3.5 11.3 0.00 0.00 0.00 43 1016.8
20260503222506 76 177 4.3 11.3 0.00 0.00 0.00 42 1016.8
20260503221005 76 176 5.2 10.4 0.00 0.00 0.00 41 1016.9
20260503220506 77 172 4.3 10.4 0.00 0.00 0.00 42 1017.2
20260503220006 77 169 4.3 10.4 0.00 0.00 0.00 42 1017.2
20260503215506 77 165 4.3 10.4 0.00 0.00 0.00 42 1016.9
20260503215007 77 157 3.5 12.2 0.00 0.00 0.00 41 1016.8
20260503214006 77 165 5.2 11.3 0.00 0.00 0.00 41 1017.3
20260503213006 77 170 4.3 9.6 0.00 0.00 0.00 40 1017.3
20260503212506 77 168 5.2 10.4 0.00 0.00 0.00 41 1017.3
20260503212006 78 168 5.2 11.3 0.00 0.00 0.00 40 1017.3
20260503211006 79 159 4.3 8.7 0.00 0.00 0.00 40 1017.6
20260503210506 78 164 4.3 8.7 0.00 0.00 0.00 43 1017.8
20260503205505 78 192 4.3 11.3 0.00 0.00 0.00 42 1018.0
20260503205006 78 178 3.5 12.2 0.00 0.00 0.00 41 1018.2
20260503204506 78 191 3.5 12.2 0.00 0.00 0.00 41 1018.1
20260503204006 78 200 4.3 10.4 0.00 0.00 0.00 43 1018.4
20260503203506 78 179 4.3 10.4 0.00 0.00 0.00 43 1018.5
20260503203006 77 184 4.3 10.4 0.00 0.00 0.00 42 1018.5
20260503202506 78 205 2.6 10.4 0.00 0.00 0.00 41 1018.8
20260503202006 78 187 3.5 10.4 0.00 0.00 0.00 43 1018.8
20260503201006 77 149 4.3 9.6 0.00 0.00 0.00 43 1019.0
20260503200006 77 182 3.5 9.6 0.00 0.00 0.00 43 1019.4
20260503195506 77 170 3.5 9.6 0.00 0.00 0.00 44 1019.4
20260503195005 77 173 4.3 9.6 0.00 0.00 0.00 44 1019.5
20260503194506 77 175 4.3 8.7 0.00 0.00 0.00 44 1019.6
20260503194006 76 162 4.3 9.6 0.00 0.00 0.00 44 1019.6
20260503193505 76 162 4.3 9.6 0.00 0.00 0.00 43 1019.7
20260503192506 76 177 3.5 8.7 0.00 0.00 0.00 43 1019.9
20260503192006 77 181 3.5 9.6 0.00 0.00 0.00 43 1020.0
20260503191505 77 170 3.5 9.6 0.00 0.00 0.00 44 1020.2
20260503190506 76 170 4.3 11.3 0.00 0.00 0.00 43 1020.3
20260503190006 76 165 5.2 11.3 0.00 0.00 0.00 45 1020.4
20260503185506 76 163 5.2 11.3 0.00 0.00 0.00 44 1020.4
20260503185006 76 166 4.3 10.4 0.00 0.00 0.00 44 1020.4
20260503184506 76 179 4.3 13.0 0.00 0.00 0.00 45 1020.7
20260503184005 75 177 5.2 13.0 0.00 0.00 0.00 44 1020.6
20260503183506 76 173 4.3 12.2 0.00 0.00 0.00 45 1020.6
20260503183006 75 174 5.2 12.2 0.00 0.00 0.00 44 1020.8
20260503182505 75 161 5.2 12.2 0.00 0.00 0.00 45 1021.0
20260503182006 75 159 4.3 12.2 0.00 0.00 0.00 44 1021.0
20260503181506 75 169 3.5 10.4 0.00 0.00 0.00 45 1021.1
20260503181006 75 162 3.5 8.7 0.00 0.00 0.00 45 1021.1
20260503180506 74 156 4.3 9.6 0.00 0.00 0.00 47 1021.4
20260503180006 74 161 4.3 9.6 0.00 0.00 0.00 45 1021.4
20260503175506 74 152 4.3 9.6 0.00 0.00 0.00 45 1021.6
20260503175006 74 150 4.3 13.0 0.00 0.00 0.00 45 1021.5
20260503174506 74 168 4.3 13.0 0.00 0.00 0.00 45 1021.6
20260503174005 75 186 2.6 10.4 0.00 0.00 0.00 45 1021.7
20260503173506 74 174 3.5 10.4 0.00 0.00 0.00 46 1021.8
20260503173007 75 186 3.5 10.4 0.00 0.00 0.00 47 1021.9
20260503172506 74 193 2.6 11.3 0.00 0.00 0.00 47 1022.0
20260503172005 74 187 0.9 11.3 0.00 0.00 0.00 45 1022.1
20260503171506 74 0 0.0 2.6 0.00 0.00 0.00 49 1022.1
20260503171006 74 169 1.7 9.6 0.00 0.00 0.00 49 1022.3
20260503170506 73 181 3.5 9.6 0.00 0.00 0.00 46 1022.3
20260503131006 60 0 0.0 0.0 0.00 0.00 0.00 72 1023.1
20260503130506 59 0 0.0 0.0 0.00 0.00 0.00 74 1023.1
20260503110505 50 0 0.0 0.0 0.00 0.00 0.00 88 1022.0
20260503090505 51 0 0.0 0.0 0.00 0.00 0.00 86 1022.0
20260503081005 53 0 0.0 0.0 0.00 0.00 0.00 81 1021.9
20260503080506 54 0 0.0 0.0 0.00 0.00 0.00 81 1022.0
20260503072505 54 0 0.0 0.0 0.00 0.00 0.00 81 1022.1
20260503072005 54 0 0.0 0.0 0.00 0.00 0.00 81 1022.2
20260503071505 55 0 0.0 0.0 0.00 0.00 0.00 81 1022.3
20260503071006 54 0 0.0 0.0 0.00 0.00 0.00 81 1022.2
20260503070505 55 0 0.0 0.0 0.00 0.00 0.00 81 1022.3
20260503055006 56 0 0.0 0.0 0.00 0.00 0.00 81 1022.4
20260503054505 57 0 0.0 0.0 0.00 0.00 0.00 80 1022.4
20260503054005 57 0 0.0 0.0 0.00 0.00 0.00 79 1022.3
20260503053506 57 0 0.0 0.0 0.00 0.00 0.00 79 1022.4
20260503053005 57 0 0.0 0.0 0.00 0.00 0.00 79 1022.5
20260503052505 57 0 0.0 0.0 0.00 0.00 0.00 78 1022.5
20260503052005 57 0 0.0 0.0 0.00 0.00 0.00 77 1022.5
20260503051505 57 0 0.0 0.0 0.00 0.00 0.00 77 1022.5
20260503051005 57 0 0.0 0.0 0.00 0.00 0.00 77 1022.6
20260503050505 58 0 0.0 0.0 0.00 0.00 0.00 76 1022.6
20260503050006 58 0 0.0 0.0 0.00 0.00 0.00 75 1022.5
20260503045505 58 0 0.0 0.0 0.00 0.00 0.00 74 1022.4
20260503045005 58 0 0.0 0.0 0.00 0.00 0.00 74 1022.4
20260503044506 58 0 0.0 0.0 0.00 0.00 0.00 73 1022.4
20260503044005 59 0 0.0 0.0 0.00 0.00 0.00 72 1022.4
20260503043505 59 0 0.0 0.0 0.00 0.00 0.00 72 1022.4
20260503043005 59 0 0.0 0.0 0.00 0.00 0.00 72 1022.4
20260503042505 59 0 0.0 0.0 0.00 0.00 0.00 73 1022.5
20260503042005 59 0 0.0 0.0 0.00 0.00 0.00 73 1022.5
20260503041506 59 0 0.0 0.0 0.00 0.00 0.00 72 1022.6
20260503041005 59 0 0.0 0.0 0.00 0.00 0.00 71 1022.7
20260503040505 58 0 0.0 0.0 0.00 0.00 0.00 72 1022.7
20260503040005 58 0 0.0 0.0 0.00 0.00 0.00 73 1022.8
20260503035505 58 0 0.0 0.0 0.00 0.00 0.00 73 1022.7
20260503035005 58 0 0.0 0.0 0.00 0.00 0.00 73 1022.6
20260503034005 58 0 0.0 0.0 0.00 0.00 0.00 75 1022.3
20260503033505 58 0 0.0 0.0 0.00 0.00 0.00 74 1022.2
20260503032505 58 0 0.0 0.0 0.00 0.00 0.00 78 1022.1
20260503032005 59 0 0.0 0.0 0.00 0.00 0.00 75 1022.0
20260503031506 60 0 0.0 0.0 0.00 0.00 0.00 69 1022.0
20260503031004 60 0 0.0 0.0 0.00 0.00 0.00 68 1021.9
20260503030505 59 0 0.0 0.0 0.00 0.00 0.00 70 1021.8
20260503030007 59 0 0.0 0.0 0.00 0.00 0.00 72 1021.8
20260503025505 59 0 0.0 0.0 0.00 0.00 0.00 73 1021.8
20260503025005 59 0 0.0 0.0 0.00 0.00 0.00 74 1021.8
20260503024505 59 0 0.0 0.0 0.00 0.00 0.00 75 1021.8
20260503024005 59 0 0.0 0.0 0.00 0.00 0.00 79 1021.9
20260503023504 60 0 0.0 0.0 0.00 0.00 0.00 76 1021.9
20260503023006 60 0 0.0 0.0 0.00 0.00 0.00 71 1021.7
20260503022505 60 0 0.0 0.0 0.00 0.00 0.00 70 1021.6
20260503022004 60 0 0.0 0.0 0.00 0.00 0.00 71 1021.7
20260503021505 60 0 0.0 0.0 0.00 0.00 0.00 76 1021.8
20260503020505 62 0 0.0 0.0 0.00 0.00 0.00 72 1021.6
20260503020005 62 0 0.0 0.0 0.00 0.00 0.00 69 1021.6
20260503015505 63 0 0.0 0.0 0.00 0.00 0.00 67 1021.6
20260503015005 64 0 0.0 0.0 0.00 0.00 0.00 60 1021.6
20260503014505 64 0 0.0 0.0 0.00 0.00 0.00 59 1021.5
20260503014005 64 0 0.0 0.0 0.00 0.00 0.00 58 1021.5
20260503013505 65 0 0.0 0.0 0.00 0.00 0.00 57 1021.5
20260503013005 66 0 0.0 0.0 0.00 0.00 0.00 56 1021.4
20260503012506 67 0 0.0 0.0 0.00 0.00 0.00 54 1021.4
20260503012004 67 0 0.0 0.0 0.00 0.00 0.00 51 1021.2
20260503011504 67 0 0.0 0.0 0.00 0.00 0.00 49 1021.2
20260503011004 68 0 0.0 0.0 0.00 0.00 0.00 49 1021.2
20260503010505 68 0 0.0 0.0 0.00 0.00 0.00 49 1021.1
20260503010005 68 0 0.0 0.0 0.00 0.00 0.00 49 1021.1
20260503005505 68 0 0.0 0.0 0.00 0.00 0.00 48 1020.9
20260503005004 68 0 0.0 0.0 0.00 0.00 0.00 48 1021.0
20260503004505 68 0 0.0 0.0 0.00 0.00 0.00 48 1021.0
20260503004006 68 0 0.0 0.0 0.00 0.00 0.00 48 1021.0